Time,TemperatureF,DewpointF,PressureIn,WindDirection,WindDirectionDegrees,WindSpeedMPH,WindSpeedGustMPH,Humidity,HourlyPrecipIn,Conditions,Clouds,dailyrainin,SolarRadiationWatts/m^2,SoftwareType,DateUTC
2013-01-13 00:02:00,39.4,35.0,29.87,North,355,13.0,17.0,84,0.00,,,0.11,0,Wunderground v.1.15,2013-01-13 06:02:00,
2013-01-13 00:10:00,39.3,35.2,29.85,NNW,344,12.0,12.0,85,0.00,,,0.00,0,Wunderground v.1.15,2013-01-13 06:10:00,
2013-01-13 00:16:00,39.2,35.1,29.86,NNW,345,12.0,13.0,85,0.00,,,0.00,0,Wunderground v.1.15,2013-01-13 06:16:00,
2013-01-13 00:22:00,39.1,35.0,29.87,NNW,339,12.0,13.0,85,0.00,,,0.00,0,Wunderground v.1.15,2013-01-13 06:22:00,
2013-01-13 00:30:00,39.1,35.0,29.85,North,350,11.0,14.0,85,0.00,,,0.00,0,Wunderground v.1.15,2013-01-13 06:30:00,
2013-01-13 00:36:00,38.9,34.8,29.86,NNW,346,12.0,14.0,85,0.00,,,0.00,0,Wunderground v.1.15,2013-01-13 06:36:00,
2013-01-13 00:42:00,38.8,34.4,29.87,North,355,13.0,19.0,84,0.00,,,0.00,0,Wunderground v.1.15,2013-01-13 06:42:00,
2013-01-13 00:48:00,38.8,34.4,29.89,NNW,344,13.0,21.0,84,0.00,,,0.00,0,Wunderground v.1.15,2013-01-13 06:48:00,
2013-01-13 00:54:00,38.8,34.4,29.89,NNW,335,12.0,14.0,84,0.00,,,0.00,0,Wunderground v.1.15,2013-01-13 06:54:00,
2013-01-13 01:00:00,38.8,34.4,29.89,NNW,340,11.0,11.0,84,0.00,,,0.00,0,Wunderground v.1.15,2013-01-13 07:00:00,
2013-01-13 01:06:00,38.9,34.5,29.90,NW,320,11.0,15.0,84,0.00,,,0.00,0,Wunderground v.1.15,2013-01-13 07:06:00,
2013-01-13 01:12:00,38.9,34.5,29.91,NNW,343,12.0,15.0,84,0.00,,,0.00,0,Wunderground v.1.15,2013-01-13 07:12:00,
2013-01-13 01:18:00,39.0,34.6,29.89,NNW,340,13.0,19.0,84,0.00,,,0.00,0,Wunderground v.1.15,2013-01-13 07:18:00,
2013-01-13 01:24:00,38.9,34.8,29.90,NNW,341,12.0,12.0,85,0.00,,,0.00,0,Wunderground v.1.15,2013-01-13 07:24:00,
2013-01-13 01:30:00,38.9,34.8,29.89,NNW,338,8.0,8.0,85,0.00,,,0.00,0,Wunderground v.1.15,2013-01-13 07:30:00,
2013-01-13 01:36:00,38.9,34.8,29.90,NNW,342,10.0,12.0,85,0.00,,,0.00,0,Wunderground v.1.15,2013-01-13 07:36:00,
2013-01-13 01:42:00,38.8,34.4,29.90,North,355,11.0,17.0,84,0.00,,,0.00,0,Wunderground v.1.15,2013-01-13 07:42:00,
2013-01-13 01:48:00,38.8,34.4,29.92,North,350,10.0,17.0,84,0.00,,,0.00,0,Wunderground v.1.15,2013-01-13 07:48:00,
2013-01-13 01:54:00,38.9,34.2,29.91,NNW,347,10.0,15.0,83,0.00,,,0.00,0,Wunderground v.1.15,2013-01-13 07:54:00,
2013-01-13 02:00:00,39.0,34.0,29.92,NNW,343,12.0,13.0,82,0.00,,,0.00,0,Wunderground v.1.15,2013-01-13 08:00:00,
2013-01-13 02:06:00,39.1,34.1,29.93,NW,324,10.0,13.0,82,0.00,,,0.00,0,Wunderground v.1.15,2013-01-13 08:06:00,
2013-01-13 02:12:00,39.2,34.5,29.93,NNW,347,8.0,9.0,83,0.00,,,0.00,0,Wunderground v.1.15,2013-01-13 08:12:00,
2013-01-13 02:20:00,39.1,34.1,29.93,NNW,336,10.0,21.0,82,0.00,,,0.00,0,Wunderground v.1.15,2013-01-13 08:20:00,
2013-01-13 02:26:00,38.9,33.9,29.95,NNW,342,13.0,21.0,82,0.00,,,0.00,0,Wunderground v.1.15,2013-01-13 08:26:00,
2013-01-13 02:32:00,38.7,33.7,29.92,NNW,341,12.0,13.0,82,0.00,,,0.00,0,Wunderground v.1.15,2013-01-13 08:32:00,
2013-01-13 02:40:00,38.6,33.3,29.93,North,350,11.0,11.0,81,0.00,,,0.00,0,Wunderground v.1.15,2013-01-13 08:40:00,
2013-01-13 02:46:00,38.4,33.1,29.94,North,350,11.0,16.0,81,0.00,,,0.00,0,Wunderground v.1.15,2013-01-13 08:46:00,
2013-01-13 02:52:00,38.3,33.0,29.93,North,355,13.0,17.0,81,0.00,,,0.00,0,Wunderground v.1.15,2013-01-13 08:52:00,
2013-01-13 03:00:00,38.2,33.2,29.94,NNW,336,11.0,11.0,82,0.00,,,0.00,0,Wunderground v.1.15,2013-01-13 09:00:00,
2013-01-13 03:06:00,37.9,33.2,29.94,North,355,11.0,11.0,83,0.00,,,0.00,0,Wunderground v.1.15,2013-01-13 09:06:00,
2013-01-13 03:12:00,37.6,33.2,29.94,NNW,344,11.0,14.0,84,0.00,,,0.00,0,Wunderground v.1.15,2013-01-13 09:12:00,
2013-01-13 03:18:00,37.5,33.1,29.95,NNW,329,10.0,14.0,84,0.00,,,0.00,0,Wunderground v.1.15,2013-01-13 09:18:00,
2013-01-13 03:26:00,37.2,32.8,29.94,NNW,345,10.0,18.0,84,0.00,,,0.00,0,Wunderground v.1.15,2013-01-13 09:26:00,
2013-01-13 03:32:00,37.0,32.3,29.94,NNW,342,12.0,15.0,83,0.00,,,0.00,0,Wunderground v.1.15,2013-01-13 09:32:00,
2013-01-13 03:40:00,37.0,32.3,29.93,North,355,12.0,12.0,83,0.00,,,0.00,0,Wunderground v.1.15,2013-01-13 09:40:00,
2013-01-13 03:46:00,37.0,32.0,29.91,NNW,346,14.0,15.0,82,0.00,,,0.00,0,Wunderground v.1.15,2013-01-13 09:46:00,
2013-01-13 03:52:00,36.9,32.2,29.94,NNW,346,12.0,13.0,83,0.00,,,0.00,0,Wunderground v.1.15,2013-01-13 09:52:00,
2013-01-13 03:58:00,36.9,32.2,29.95,North,355,9.0,18.0,83,0.00,,,0.00,0,Wunderground v.1.15,2013-01-13 09:58:00,
2013-01-13 04:04:00,36.9,32.2,29.94,NNW,339,11.0,14.0,83,0.00,,,0.00,0,Wunderground v.1.15,2013-01-13 10:04:00,
2013-01-13 04:10:00,36.8,32.1,29.95,NNW,336,13.0,13.0,83,0.00,,,0.00,0,Wunderground v.1.15,2013-01-13 10:10:00,
2013-01-13 04:16:00,36.8,32.1,29.93,North,355,12.0,13.0,83,0.00,,,0.00,0,Wunderground v.1.15,2013-01-13 10:16:00,
2013-01-13 04:22:00,36.7,32.0,29.93,NNW,341,11.0,12.0,83,0.00,,,0.00,0,Wunderground v.1.15,2013-01-13 10:22:00,
2013-01-13 04:28:00,36.5,31.8,29.94,NNW,338,11.0,14.0,83,0.00,,,0.00,0,Wunderground v.1.15,2013-01-13 10:28:00,
2013-01-13 04:36:00,36.4,32.3,29.95,NNW,341,10.0,12.0,85,0.00,,,0.00,0,Wunderground v.1.15,2013-01-13 10:36:00,
2013-01-13 04:42:00,36.4,32.3,29.97,NNW,336,8.0,9.0,85,0.00,,,0.00,0,Wunderground v.1.15,2013-01-13 10:42:00,
2013-01-13 04:50:00,36.4,32.0,29.98,NNW,342,9.0,13.0,84,0.00,,,0.00,0,Wunderground v.1.15,2013-01-13 10:50:00,
2013-01-13 04:56:00,36.3,31.9,29.97,NNW,340,8.0,15.0,84,0.00,,,0.00,0,Wunderground v.1.15,2013-01-13 10:56:00,
2013-01-13 05:02:00,36.2,32.1,29.97,NNW,332,10.0,13.0,85,0.00,,,0.00,0,Wunderground v.1.15,2013-01-13 11:02:00,
2013-01-13 05:08:00,36.2,31.8,29.97,NNW,347,10.0,13.0,84,0.00,,,0.00,0,Wunderground v.1.15,2013-01-13 11:08:00,
2013-01-13 05:14:00,36.2,31.8,29.98,North,351,10.0,15.0,84,0.00,,,0.00,0,Wunderground v.1.15,2013-01-13 11:14:00,
2013-01-13 05:20:00,36.2,31.5,30.00,NNW,328,10.0,10.0,83,0.00,,,0.00,0,Wunderground v.1.15,2013-01-13 11:20:00,
2013-01-13 05:26:00,36.2,31.2,29.99,North,5,11.0,11.0,82,0.00,,,0.00,0,Wunderground v.1.15,2013-01-13 11:26:00,
2013-01-13 05:32:00,36.2,31.2,29.98,North,355,10.0,17.0,82,0.00,,,0.00,0,Wunderground v.1.15,2013-01-13 11:32:00,
2013-01-13 05:38:00,36.1,30.8,29.98,North,351,12.0,17.0,81,0.00,,,0.00,0,Wunderground v.1.15,2013-01-13 11:38:00,
2013-01-13 05:44:00,36.0,30.4,29.98,NNW,338,13.0,16.0,80,0.00,,,0.01,0,Wunderground v.1.15,2013-01-13 11:44:00,
2013-01-13 05:50:00,35.8,30.2,30.00,NNW,333,12.0,12.0,80,0.00,,,0.01,0,Wunderground v.1.15,2013-01-13 11:50:00,
2013-01-13 05:56:00,35.8,30.2,30.00,North,11,11.0,15.0,80,0.00,,,0.01,0,Wunderground v.1.15,2013-01-13 11:56:00,
2013-01-13 06:02:00,35.7,30.1,30.01,North,355,10.0,10.0,80,0.00,,,0.01,0,Wunderground v.1.15,2013-01-13 12:02:00,
2013-01-13 06:08:00,35.7,30.1,30.01,NNW,345,10.0,11.0,80,0.00,,,0.01,0,Wunderground v.1.15,2013-01-13 12:08:00,
2013-01-13 06:14:00,35.7,30.1,30.02,North,350,9.0,13.0,80,0.00,,,0.01,0,Wunderground v.1.15,2013-01-13 12:14:00,
2013-01-13 06:20:00,35.7,30.1,30.02,NNW,336,10.0,11.0,80,0.00,,,0.01,0,Wunderground v.1.15,2013-01-13 12:20:00,
2013-01-13 06:26:00,35.7,30.1,30.03,NW,326,11.0,13.0,80,0.00,,,0.01,0,Wunderground v.1.15,2013-01-13 12:26:00,
2013-01-13 06:32:00,35.7,29.8,30.03,NNW,344,12.0,12.0,79,0.00,,,0.01,0,Wunderground v.1.15,2013-01-13 12:32:00,
2013-01-13 06:40:00,35.7,29.8,30.04,NNW,338,12.0,12.0,79,0.00,,,0.01,0,Wunderground v.1.15,2013-01-13 12:40:00,
2013-01-13 06:46:00,35.7,29.8,30.03,North,350,11.0,15.0,79,0.00,,,0.01,0,Wunderground v.1.15,2013-01-13 12:46:00,
2013-01-13 06:52:00,35.7,29.8,30.03,NNW,340,11.0,11.0,79,0.00,,,0.01,0,Wunderground v.1.15,2013-01-13 12:52:00,
2013-01-13 07:00:00,35.7,29.5,30.05,North,350,11.0,12.0,78,0.00,,,0.01,0,Wunderground v.1.15,2013-01-13 13:00:00,
2013-01-13 07:06:00,35.8,29.9,30.05,North,351,11.0,18.0,79,0.00,,,0.01,0,Wunderground v.1.15,2013-01-13 13:06:00,
2013-01-13 07:12:00,35.8,29.9,30.05,North,360,11.0,12.0,79,0.00,,,0.01,0,Wunderground v.1.15,2013-01-13 13:12:00,
2013-01-13 07:18:00,35.7,29.8,30.06,NNW,339,11.0,12.0,79,0.00,,,0.01,0,Wunderground v.1.15,2013-01-13 13:18:00,
2013-01-13 07:24:00,35.8,29.9,30.07,NNW,346,8.0,12.0,79,0.00,,,0.01,0,Wunderground v.1.15,2013-01-13 13:24:00,
2013-01-13 07:30:00,35.8,29.9,30.07,NNW,344,9.0,9.0,79,0.00,,,0.01,0,Wunderground v.1.15,2013-01-13 13:30:00,
2013-01-13 07:36:00,35.9,30.0,30.06,North,355,8.0,12.0,79,0.00,,,0.01,0,Wunderground v.1.15,2013-01-13 13:36:00,
2013-01-13 07:42:00,35.9,30.0,30.06,North,355,9.0,9.0,79,0.00,,,0.01,5,Wunderground v.1.15,2013-01-13 13:42:00,
2013-01-13 07:50:00,35.9,29.7,30.06,North,350,13.0,22.0,78,0.00,,,0.01,11,Wunderground v.1.15,2013-01-13 13:50:00,
2013-01-13 07:56:00,35.9,30.0,30.07,NNW,346,12.0,22.0,79,0.00,,,0.01,16,Wunderground v.1.15,2013-01-13 13:56:00,
2013-01-13 08:02:00,36.0,29.8,30.07,NNW,338,7.0,8.0,78,0.00,,,0.01,14,Wunderground v.1.15,2013-01-13 14:02:00,
2013-01-13 08:08:00,36.0,29.8,30.08,NNW,344,9.0,16.0,78,0.00,,,0.01,18,Wunderground v.1.15,2013-01-13 14:08:00,
2013-01-13 08:14:00,36.1,29.9,30.08,North,349,11.0,18.0,78,0.00,,,0.01,25,Wunderground v.1.15,2013-01-13 14:14:00,
2013-01-13 08:20:00,36.0,29.8,30.08,NNW,345,11.0,11.0,78,0.00,,,0.01,40,Wunderground v.1.15,2013-01-13 14:20:00,
2013-01-13 08:26:00,36.1,29.9,30.09,NNW,342,10.0,13.0,78,0.00,,,0.01,56,Wunderground v.1.15,2013-01-13 14:26:00,
2013-01-13 08:32:00,36.1,29.9,30.09,NNW,333,11.0,13.0,78,0.00,,,0.01,72,Wunderground v.1.15,2013-01-13 14:32:00,
2013-01-13 08:38:00,36.0,29.8,30.09,NNW,347,11.0,16.0,78,0.00,,,0.01,67,Wunderground v.1.15,2013-01-13 14:38:00,
2013-01-13 08:44:00,36.0,29.8,30.10,NNW,343,10.0,13.0,78,0.00,,,0.01,65,Wunderground v.1.15,2013-01-13 14:44:00,
2013-01-13 08:50:00,36.0,29.8,30.10,North,355,11.0,15.0,78,0.00,,,0.01,81,Wunderground v.1.15,2013-01-13 14:50:00,
2013-01-13 08:56:00,36.0,29.8,30.11,NNW,348,13.0,15.0,78,0.00,,,0.01,90,Wunderground v.1.15,2013-01-13 14:56:00,
2013-01-13 09:02:00,36.1,29.9,30.11,North,355,11.0,12.0,78,0.00,,,0.01,107,Wunderground v.1.15,2013-01-13 15:02:00,
2013-01-13 09:10:00,36.1,29.6,30.12,NW,323,11.0,11.0,77,0.00,,,0.01,88,Wunderground v.1.15,2013-01-13 15:10:00,
2013-01-13 09:16:00,36.0,29.5,30.13,North,350,12.0,12.0,77,0.00,,,0.01,104,Wunderground v.1.15,2013-01-13 15:16:00,
2013-01-13 09:22:00,36.1,29.3,30.12,North,355,13.0,18.0,76,0.00,,,0.01,283,Wunderground v.1.15,2013-01-13 15:22:00,
2013-01-13 09:30:00,36.2,28.7,30.13,NNE,19,15.0,15.0,74,0.00,,,0.01,308,Wunderground v.1.15,2013-01-13 15:30:00,
2013-01-13 09:36:00,36.5,29.3,30.13,North,355,15.0,24.0,75,0.00,,,0.01,313,Wunderground v.1.15,2013-01-13 15:36:00,
2013-01-13 09:42:00,36.9,29.7,30.13,NNW,347,13.0,16.0,75,0.00,,,0.01,346,Wunderground v.1.15,2013-01-13 15:42:00,
2013-01-13 09:48:00,37.4,30.2,30.14,North,355,14.0,16.0,75,0.00,,,0.01,336,Wunderground v.1.15,2013-01-13 15:48:00,
2013-01-13 09:56:00,37.7,30.2,30.14,North,355,11.0,13.0,74,0.00,,,0.01,262,Wunderground v.1.15,2013-01-13 15:56:00,
2013-01-13 10:02:00,37.7,30.2,30.14,NNW,342,12.0,12.0,74,0.00,,,0.01,244,Wunderground v.1.15,2013-01-13 16:02:00,
2013-01-13 10:08:00,37.6,29.7,30.15,NNW,327,11.0,12.0,73,0.00,,,0.01,244,Wunderground v.1.15,2013-01-13 16:08:00,
2013-01-13 10:14:00,37.5,29.6,30.15,North,355,11.0,14.0,73,0.00,,,0.01,253,Wunderground v.1.15,2013-01-13 16:14:00,
2013-01-13 10:20:00,37.5,29.6,30.15,NNW,347,11.0,13.0,73,0.00,,,0.01,200,Wunderground v.1.15,2013-01-13 16:20:00,
2013-01-13 10:26:00,37.4,29.2,30.14,NNW,336,12.0,14.0,72,0.00,,,0.01,417,Wunderground v.1.15,2013-01-13 16:26:00,
2013-01-13 10:32:00,37.7,29.8,30.15,NNW,342,12.0,13.0,73,0.00,,,0.01,461,Wunderground v.1.15,2013-01-13 16:32:00,
2013-01-13 10:38:00,38.1,29.9,30.15,NNW,338,12.0,15.0,72,0.00,,,0.01,519,Wunderground v.1.15,2013-01-13 16:38:00,
2013-01-13 10:44:00,37.9,29.3,30.15,NNW,338,12.0,17.0,71,0.00,,,0.01,462,Wunderground v.1.15,2013-01-13 16:44:00,
2013-01-13 10:50:00,37.9,29.7,30.15,NNW,345,13.0,13.0,72,0.00,,,0.01,492,Wunderground v.1.15,2013-01-13 16:50:00,
2013-01-13 10:56:00,38.1,29.9,30.15,NW,323,13.0,13.0,72,0.00,,,0.01,492,Wunderground v.1.15,2013-01-13 16:56:00,
2013-01-13 11:02:00,38.4,31.5,30.15,NNW,342,12.0,21.0,76,0.00,,,0.01,503,Wunderground v.1.15,2013-01-13 17:02:00,
2013-01-13 11:10:00,38.7,30.1,30.15,NNW,342,12.0,14.0,71,0.00,,,0.01,520,Wunderground v.1.15,2013-01-13 17:10:00,
2013-01-13 11:16:00,39.0,30.4,30.15,North,355,11.0,15.0,71,0.00,,,0.01,533,Wunderground v.1.15,2013-01-13 17:16:00,
2013-01-13 11:22:00,38.9,30.3,30.15,North,350,12.0,16.0,71,0.00,,,0.01,545,Wunderground v.1.15,2013-01-13 17:22:00,
2013-01-13 11:30:00,39.1,30.1,30.15,NNW,327,13.0,13.0,70,0.00,,,0.01,554,Wunderground v.1.15,2013-01-13 17:30:00,
2013-01-13 11:36:00,39.7,31.1,30.14,North,360,11.0,15.0,71,0.00,,,0.01,563,Wunderground v.1.15,2013-01-13 17:36:00,
2013-01-13 11:42:00,39.7,30.7,30.14,NNW,347,12.0,16.0,70,0.00,,,0.01,568,Wunderground v.1.15,2013-01-13 17:42:00,
2013-01-13 11:48:00,39.8,30.8,30.14,NW,322,12.0,16.0,70,0.00,,,0.01,575,Wunderground v.1.15,2013-01-13 17:48:00,
2013-01-13 11:56:00,39.9,30.9,30.15,NNW,345,12.0,14.0,70,0.00,,,0.01,584,Wunderground v.1.15,2013-01-13 17:56:00,
2013-01-13 12:02:00,39.9,30.2,30.14,North,355,13.0,18.0,68,0.00,,,0.01,589,Wunderground v.1.15,2013-01-13 18:02:00,
2013-01-13 12:10:00,39.8,30.5,30.14,NNW,342,14.0,14.0,69,0.00,,,0.01,594,Wunderground v.1.15,2013-01-13 18:10:00,
2013-01-13 12:16:00,40.0,30.6,30.13,NW,323,14.0,16.0,69,0.00,,,0.01,599,Wunderground v.1.15,2013-01-13 18:16:00,
2013-01-13 12:22:00,40.6,30.9,30.13,NNW,340,10.0,12.0,68,0.00,,,0.01,603,Wunderground v.1.15,2013-01-13 18:22:00,
2013-01-13 12:30:00,40.6,30.5,30.13,NW,325,12.0,12.0,67,0.00,,,0.01,610,Wunderground v.1.15,2013-01-13 18:30:00,
2013-01-13 12:36:00,40.8,31.1,30.12,NNW,334,12.0,12.0,68,0.00,,,0.01,610,Wunderground v.1.15,2013-01-13 18:36:00,
2013-01-13 12:42:00,41.2,30.7,30.12,North,350,10.0,14.0,66,0.00,,,0.01,612,Wunderground v.1.15,2013-01-13 18:42:00,
2013-01-13 12:50:00,40.9,30.4,30.12,North,355,13.0,14.0,66,0.00,,,0.01,613,Wunderground v.1.15,2013-01-13 18:50:00,
2013-01-13 12:56:00,40.9,30.8,30.12,North,360,13.0,14.0,67,0.00,,,0.01,613,Wunderground v.1.15,2013-01-13 18:56:00,
2013-01-13 13:02:00,41.5,31.0,30.11,North,355,12.0,12.0,66,0.00,,,0.01,613,Wunderground v.1.15,2013-01-13 19:02:00,
2013-01-13 13:10:00,41.8,31.3,30.11,NNW,333,11.0,17.0,66,0.00,,,0.01,612,Wunderground v.1.15,2013-01-13 19:10:00,
2013-01-13 13:16:00,41.8,30.9,30.12,NNW,344,12.0,17.0,65,0.00,,,0.01,608,Wunderground v.1.15,2013-01-13 19:16:00,
2013-01-13 13:22:00,41.9,31.4,30.12,North,10,13.0,13.0,66,0.00,,,0.01,605,Wunderground v.1.15,2013-01-13 19:22:00,
2013-01-13 13:28:00,42.2,31.3,30.12,North,351,12.0,13.0,65,0.00,,,0.01,601,Wunderground v.1.15,2013-01-13 19:28:00,
2013-01-13 13:34:00,42.2,31.3,30.11,North,351,12.0,19.0,65,0.00,,,0.01,598,Wunderground v.1.15,2013-01-13 19:34:00,
2013-01-13 13:40:00,42.3,31.4,30.11,NNW,343,13.0,14.0,65,0.00,,,0.01,592,Wunderground v.1.15,2013-01-13 19:40:00,
2013-01-13 13:46:00,42.4,31.5,30.12,North,355,12.0,14.0,65,0.00,,,0.01,585,Wunderground v.1.15,2013-01-13 19:46:00,
2013-01-13 13:52:00,42.4,31.5,30.12,NNW,331,12.0,16.0,65,0.00,,,0.01,580,Wunderground v.1.15,2013-01-13 19:52:00,
2013-01-13 14:00:00,42.9,32.3,30.11,North,355,10.0,10.0,66,0.00,,,0.01,571,Wunderground v.1.15,2013-01-13 20:00:00,
2013-01-13 14:06:00,43.6,31.8,30.11,North,355,10.0,13.0,63,0.00,,,0.01,564,Wunderground v.1.15,2013-01-13 20:06:00,
2013-01-13 14:12:00,43.3,31.5,30.11,North,9,11.0,14.0,63,0.00,,,0.01,555,Wunderground v.1.15,2013-01-13 20:12:00,
2013-01-13 14:18:00,43.4,31.6,30.11,North,355,13.0,14.0,63,0.00,,,0.01,543,Wunderground v.1.15,2013-01-13 20:18:00,
2013-01-13 14:24:00,43.3,31.5,30.11,NNW,348,13.0,18.0,63,0.00,,,0.01,538,Wunderground v.1.15,2013-01-13 20:24:00,
2013-01-13 14:30:00,43.6,31.8,30.11,North,5,11.0,11.0,63,0.00,,,0.01,526,Wunderground v.1.15,2013-01-13 20:30:00,
2013-01-13 14:36:00,44.0,32.6,30.10,North,355,11.0,11.0,64,0.00,,,0.01,517,Wunderground v.1.15,2013-01-13 20:36:00,
2013-01-13 14:42:00,44.0,31.8,30.10,North,351,11.0,13.0,62,0.00,,,0.01,504,Wunderground v.1.15,2013-01-13 20:42:00,
2013-01-13 14:48:00,44.3,32.5,30.10,NW,325,11.0,13.0,63,0.00,,,0.01,492,Wunderground v.1.15,2013-01-13 20:48:00,
2013-01-13 14:54:00,44.7,32.5,30.11,North,5,10.0,12.0,62,0.00,,,0.01,482,Wunderground v.1.15,2013-01-13 20:54:00,
2013-01-13 15:00:00,45.0,32.3,30.11,NNW,346,10.0,10.0,61,0.00,,,0.01,469,Wunderground v.1.15,2013-01-13 21:00:00,
2013-01-13 15:06:00,44.9,32.3,30.11,NNW,346,12.0,15.0,61,0.00,,,0.01,455,Wunderground v.1.15,2013-01-13 21:06:00,
2013-01-13 15:12:00,45.0,32.3,30.11,North,5,11.0,11.0,61,0.00,,,0.01,441,Wunderground v.1.15,2013-01-13 21:12:00,
2013-01-13 15:18:00,45.0,31.9,30.12,North,5,10.0,13.0,60,0.00,,,0.01,425,Wunderground v.1.15,2013-01-13 21:18:00,
2013-01-13 15:26:00,44.9,31.8,30.12,NNW,345,12.0,12.0,60,0.00,,,0.01,403,Wunderground v.1.15,2013-01-13 21:26:00,
2013-01-13 15:32:00,44.9,31.8,30.12,NNW,347,11.0,12.0,60,0.00,,,0.01,390,Wunderground v.1.15,2013-01-13 21:32:00,
2013-01-13 15:38:00,45.3,32.6,30.12,North,5,10.0,13.0,61,0.00,,,0.01,373,Wunderground v.1.15,2013-01-13 21:38:00,
2013-01-13 15:44:00,45.5,32.0,30.12,North,350,10.0,14.0,59,0.00,,,0.01,357,Wunderground v.1.15,2013-01-13 21:44:00,
2013-01-13 15:50:00,45.6,31.7,30.12,NNW,347,10.0,10.0,58,0.00,,,0.01,339,Wunderground v.1.15,2013-01-13 21:50:00,
2013-01-13 15:56:00,45.5,32.4,30.13,NNE,17,11.0,16.0,60,0.00,,,0.01,323,Wunderground v.1.15,2013-01-13 21:56:00,
2013-01-13 16:02:00,45.5,31.6,30.12,North,11,11.0,11.0,58,0.00,,,0.01,304,Wunderground v.1.15,2013-01-13 22:02:00,
2013-01-13 16:08:00,45.5,31.1,30.12,North,355,11.0,16.0,57,0.00,,,0.01,285,Wunderground v.1.15,2013-01-13 22:08:00,
2013-01-13 16:16:00,45.5,32.0,30.12,NNW,348,10.0,14.0,59,0.00,,,0.01,264,Wunderground v.1.15,2013-01-13 22:16:00,
2013-01-13 16:22:00,45.6,30.8,30.12,North,5,9.0,12.0,56,0.00,,,0.01,243,Wunderground v.1.15,2013-01-13 22:22:00,
2013-01-13 16:28:00,45.4,30.6,30.12,North,360,11.0,14.0,56,0.00,,,0.01,216,Wunderground v.1.15,2013-01-13 22:28:00,
2013-01-13 16:34:00,45.4,30.6,30.12,NNE,20,11.0,13.0,56,0.00,,,0.01,197,Wunderground v.1.15,2013-01-13 22:34:00,
2013-01-13 16:40:00,45.3,31.0,30.12,North,5,9.0,10.0,57,0.00,,,0.01,172,Wunderground v.1.15,2013-01-13 22:40:00,
2013-01-13 16:46:00,45.3,31.0,30.13,North,360,9.0,11.0,57,0.00,,,0.01,151,Wunderground v.1.15,2013-01-13 22:46:00,
2013-01-13 16:52:00,45.2,30.9,30.13,North,360,10.0,14.0,57,0.00,,,0.01,128,Wunderground v.1.15,2013-01-13 22:52:00,
2013-01-13 16:58:00,45.0,31.1,30.13,North,11,9.0,14.0,58,0.00,,,0.01,97,Wunderground v.1.15,2013-01-13 22:58:00,
2013-01-13 17:06:00,44.9,31.4,30.14,NNE,19,7.0,11.0,59,0.00,,,0.01,56,Wunderground v.1.15,2013-01-13 23:06:00,
2013-01-13 17:12:00,44.7,30.8,30.14,NNE,28,7.0,12.0,58,0.00,,,0.01,54,Wunderground v.1.15,2013-01-13 23:12:00,
2013-01-13 17:18:00,44.4,30.1,30.14,NNW,347,9.0,14.0,57,0.00,,,0.01,42,Wunderground v.1.15,2013-01-13 23:18:00,
2013-01-13 17:24:00,44.3,30.4,30.14,NNE,18,8.0,9.0,58,0.00,,,0.01,28,Wunderground v.1.15,2013-01-13 23:24:00,
2013-01-13 17:30:00,43.9,30.1,30.14,North,360,9.0,9.0,58,0.00,,,0.01,21,Wunderground v.1.15,2013-01-13 23:30:00,
2013-01-13 17:36:00,43.6,29.8,30.14,North,5,10.0,11.0,58,0.00,,,0.01,12,Wunderground v.1.15,2013-01-13 23:36:00,
2013-01-13 17:42:00,43.3,29.9,30.15,North,360,8.0,8.0,59,0.00,,,0.01,7,Wunderground v.1.15,2013-01-13 23:42:00,
2013-01-13 17:50:00,42.8,29.9,30.15,North,5,7.0,7.0,60,0.00,,,0.01,5,Wunderground v.1.15,2013-01-13 23:50:00,
2013-01-13 17:56:00,42.5,30.0,30.15,NNE,13,7.0,8.0,61,0.00,,,0.01,0,Wunderground v.1.15,2013-01-13 23:56:00,
2013-01-13 18:02:00,42.3,30.2,30.16,North,5,7.0,8.0,62,0.00,,,0.01,0,Wunderground v.1.15,2013-01-14 00:02:00,
2013-01-13 18:10:00,42.1,29.6,30.16,North,355,8.0,13.0,61,0.00,,,0.01,0,Wunderground v.1.15,2013-01-14 00:10:00,
2013-01-13 18:16:00,41.9,29.8,30.16,North,5,8.0,13.0,62,0.00,,,0.01,0,Wunderground v.1.15,2013-01-14 00:16:00,
2013-01-13 18:22:00,41.7,29.6,30.16,North,355,7.0,9.0,62,0.00,,,0.01,0,Wunderground v.1.15,2013-01-14 00:22:00,
2013-01-13 18:30:00,41.4,29.7,30.16,North,360,8.0,8.0,63,0.00,,,0.01,0,Wunderground v.1.15,2013-01-14 00:30:00,
2013-01-13 18:36:00,41.2,29.5,30.15,North,5,7.0,9.0,63,0.00,,,0.01,0,Wunderground v.1.15,2013-01-14 00:36:00,
2013-01-13 18:42:00,40.9,29.7,30.16,North,360,7.0,7.0,64,0.00,,,0.01,0,Wunderground v.1.15,2013-01-14 00:42:00,
2013-01-13 18:50:00,40.7,29.5,30.16,North,5,7.0,11.0,64,0.00,,,0.01,0,Wunderground v.1.15,2013-01-14 00:50:00,
2013-01-13 18:56:00,40.6,29.7,30.16,North,5,8.0,11.0,65,0.00,,,0.01,0,Wunderground v.1.15,2013-01-14 00:56:00,
2013-01-13 19:02:00,40.4,29.6,30.17,North,355,9.0,12.0,65,0.00,,,0.01,0,Wunderground v.1.15,2013-01-14 01:02:00,
2013-01-13 19:08:00,40.2,29.4,30.16,North,10,8.0,12.0,65,0.00,,,0.01,0,Wunderground v.1.15,2013-01-14 01:08:00,
2013-01-13 19:16:00,40.0,29.2,30.16,North,360,9.0,14.0,65,0.00,,,0.01,0,Wunderground v.1.15,2013-01-14 01:16:00,
2013-01-13 19:22:00,39.9,29.1,30.16,NNE,19,9.0,12.0,65,0.00,,,0.01,0,Wunderground v.1.15,2013-01-14 01:22:00,
2013-01-13 19:28:00,39.7,28.9,30.17,NNE,20,9.0,14.0,65,0.00,,,0.01,0,Wunderground v.1.15,2013-01-14 01:28:00,
2013-01-13 19:34:00,39.6,28.8,30.17,North,5,10.0,12.0,65,0.00,,,0.01,0,Wunderground v.1.15,2013-01-14 01:34:00,
2013-01-13 19:40:00,39.4,29.0,30.17,North,5,10.0,11.0,66,0.00,,,0.01,0,Wunderground v.1.15,2013-01-14 01:40:00,
2013-01-13 19:46:00,39.3,28.9,30.17,North,360,10.0,11.0,66,0.00,,,0.01,0,Wunderground v.1.15,2013-01-14 01:46:00,
2013-01-13 19:52:00,39.1,28.7,30.17,North,9,9.0,12.0,66,0.00,,,0.01,0,Wunderground v.1.15,2013-01-14 01:52:00,
2013-01-13 19:58:00,38.9,28.5,30.17,North,11,9.0,13.0,66,0.00,,,0.01,0,Wunderground v.1.15,2013-01-14 01:58:00,
2013-01-13 20:04:00,38.8,28.4,30.17,North,355,9.0,10.0,66,0.00,,,0.01,0,Wunderground v.1.15,2013-01-14 02:04:00,
2013-01-13 20:10:00,38.6,28.2,30.17,North,355,10.0,10.0,66,0.00,,,0.01,0,Wunderground v.1.15,2013-01-14 02:10:00,
2013-01-13 20:16:00,38.5,28.1,30.17,North,355,9.0,10.0,66,0.00,,,0.01,0,Wunderground v.1.15,2013-01-14 02:16:00,
2013-01-13 20:22:00,38.3,27.9,30.18,North,355,10.0,11.0,66,0.00,,,0.01,0,Wunderground v.1.15,2013-01-14 02:22:00,
2013-01-13 20:30:00,38.1,28.1,30.18,North,9,9.0,9.0,67,0.00,,,0.01,0,Wunderground v.1.15,2013-01-14 02:30:00,
2013-01-13 20:36:00,37.8,27.8,30.18,North,9,8.0,11.0,67,0.00,,,0.01,0,Wunderground v.1.15,2013-01-14 02:36:00,
2013-01-13 20:42:00,37.7,28.1,30.17,NNE,19,8.0,10.0,68,0.00,,,0.01,0,Wunderground v.1.15,2013-01-14 02:42:00,
2013-01-13 20:48:00,37.5,27.9,30.18,NNE,15,8.0,10.0,68,0.00,,,0.01,0,Wunderground v.1.15,2013-01-14 02:48:00,
2013-01-13 20:56:00,37.3,27.7,30.19,NNE,12,7.0,13.0,68,0.00,,,0.01,0,Wunderground v.1.15,2013-01-14 02:56:00,
2013-01-13 21:02:00,37.1,27.5,30.19,NNE,18,7.0,7.0,68,0.00,,,0.01,0,Wunderground v.1.15,2013-01-14 03:02:00,
2013-01-13 21:10:00,36.9,27.7,30.19,NNE,12,7.0,8.0,69,0.00,,,0.01,0,Wunderground v.1.15,2013-01-14 03:10:00,
2013-01-13 21:16:00,36.7,27.5,30.19,NNE,14,8.0,13.0,69,0.00,,,0.01,0,Wunderground v.1.15,2013-01-14 03:16:00,
2013-01-13 21:22:00,36.5,27.3,30.19,NNE,14,8.0,10.0,69,0.00,,,0.01,0,Wunderground v.1.15,2013-01-14 03:22:00,
2013-01-13 21:28:00,36.4,27.5,30.18,North,9,8.0,10.0,70,0.00,,,0.01,0,Wunderground v.1.15,2013-01-14 03:28:00,
2013-01-13 21:36:00,36.2,27.4,30.19,North,9,7.0,10.0,70,0.00,,,0.01,0,Wunderground v.1.15,2013-01-14 03:36:00,
2013-01-13 21:42:00,36.1,27.3,30.19,North,360,8.0,11.0,70,0.00,,,0.01,0,Wunderground v.1.15,2013-01-14 03:42:00,
2013-01-13 21:48:00,35.9,26.7,30.19,North,9,9.0,12.0,69,0.00,,,0.01,0,Wunderground v.1.15,2013-01-14 03:48:00,
2013-01-13 21:54:00,35.9,26.4,30.19,North,351,9.0,15.0,68,0.00,,,0.01,0,Wunderground v.1.15,2013-01-14 03:54:00,
2013-01-13 22:00:00,35.8,26.3,30.19,North,5,10.0,10.0,68,0.00,,,0.01,0,Wunderground v.1.15,2013-01-14 04:00:00,
2013-01-13 22:06:00,35.7,26.2,30.19,North,355,11.0,12.0,68,0.00,,,0.01,0,Wunderground v.1.15,2013-01-14 04:06:00,
2013-01-13 22:12:00,35.6,26.1,30.19,North,5,10.0,10.0,68,0.00,,,0.01,0,Wunderground v.1.15,2013-01-14 04:12:00,
2013-01-13 22:20:00,35.4,25.9,30.19,North,5,11.0,13.0,68,0.00,,,0.01,0,Wunderground v.1.15,2013-01-14 04:20:00,
2013-01-13 22:26:00,35.2,25.7,30.19,North,355,10.0,13.0,68,0.00,,,0.01,0,Wunderground v.1.15,2013-01-14 04:26:00,
2013-01-13 22:32:00,35.1,25.6,30.19,North,5,9.0,9.0,68,0.00,,,0.01,0,Wunderground v.1.15,2013-01-14 04:32:00,
2013-01-13 22:40:00,34.9,25.4,30.19,North,9,10.0,10.0,68,0.00,,,0.01,0,Wunderground v.1.15,2013-01-14 04:40:00,
2013-01-13 22:46:00,34.7,25.2,30.18,NNE,17,10.0,13.0,68,0.00,,,0.01,0,Wunderground v.1.15,2013-01-14 04:46:00,
2013-01-13 22:52:00,34.6,25.1,30.19,North,355,11.0,11.0,68,0.00,,,0.01,0,Wunderground v.1.15,2013-01-14 04:52:00,
2013-01-13 23:00:00,34.4,24.9,30.19,North,360,11.0,11.0,68,0.00,,,0.01,0,Wunderground v.1.15,2013-01-14 05:00:00,
2013-01-13 23:04:00,34.3,24.8,30.19,North,355,11.0,13.0,68,0.00,,,0.01,0,Wunderground v.1.15,2013-01-14 05:04:00,
2013-01-13 23:06:00,34.3,24.8,30.20,North,360,11.0,13.0,68,0.00,,,0.01,0,Wunderground v.1.15,2013-01-14 05:06:00,
2013-01-13 23:08:00,34.3,24.8,30.20,NNE,13,11.0,13.0,68,0.00,,,0.01,0,Wunderground v.1.15,2013-01-14 05:08:00,
2013-01-13 23:14:00,34.1,24.6,30.20,North,11,10.0,11.0,68,0.00,,,0.01,0,Wunderground v.1.15,2013-01-14 05:14:00,
2013-01-13 23:20:00,34.1,24.6,30.21,North,355,10.0,10.0,68,0.00,,,0.01,0,Wunderground v.1.15,2013-01-14 05:20:00,
2013-01-13 23:26:00,33.9,24.4,30.21,North,9,10.0,14.0,68,0.00,,,0.01,0,Wunderground v.1.15,2013-01-14 05:26:00,
2013-01-13 23:32:00,33.7,24.6,30.20,NNW,348,10.0,10.0,69,0.00,,,0.01,0,Wunderground v.1.15,2013-01-14 05:32:00,
2013-01-13 23:38:00,33.5,24.4,30.20,NNE,22,9.0,14.0,69,0.00,,,0.01,0,Wunderground v.1.15,2013-01-14 05:38:00,
2013-01-13 23:46:00,33.3,24.6,30.20,North,5,10.0,17.0,70,0.00,,,0.01,0,Wunderground v.1.15,2013-01-14 05:46:00,
2013-01-13 23:52:00,33.2,24.5,30.19,NNE,12,10.0,12.0,70,0.00,,,0.01,0,Wunderground v.1.15,2013-01-14 05:52:00,